Archiv-/Tagesdaten

--Timestamp---	Temp	Chill	HIndex	Humid	Dewpt	Wind	HiWind	WindDir	Rain	Barom	        Solar	ET	UV
--------------	----	-----	------	-----	-----	----	------	-------	----	-----	        -----	--	--
20080521 00:05	7.1	7.1	7.1	92	5.8	3	8	22	0.00	1013.888	0	0.000	0
20080521 00:10	7.1	7.1	7.1	92	5.8	3	6	45	0.00	1013.922	0	0.000	0
20080521 00:15	7.0	7.0	7.0	92	5.8	3	6	45	0.00	1013.955	0	0.000	0
20080521 00:20	7.0	7.0	7.0	92	5.8	2	6	45	0.20	1013.922	0	0.000	0
20080521 00:25	7.0	7.0	7.0	92	5.8	2	5	45	0.20	1013.888	0	0.000	0
20080521 00:30	7.0	7.0	7.0	92	5.8	3	5	45	0.00	1013.955	0	0.000	0
20080521 00:35	7.0	7.0	7.0	92	5.8	3	5	45	0.00	1013.922	0	0.000	0
20080521 00:40	7.0	7.0	7.0	92	5.8	3	6	90	0.00	1013.888	0	0.000	0
20080521 00:45	7.0	7.0	7.0	92	5.8	3	8	67	0.20	1013.820	0	0.000	0
20080521 00:50	6.9	6.9	6.9	92	5.7	3	6	67	0.00	1013.786	0	0.000	0
20080521 00:55	6.9	6.9	6.9	92	5.7	3	8	45	0.00	1013.752	0	0.000	0
20080521 01:00	6.8	6.8	6.8	93	5.8	3	6	67	0.20	1013.651	0	0.000	0
20080521 01:05	6.9	6.9	6.9	93	5.8	3	6	45	0.00	1013.617	0	0.000	0
20080521 01:10	6.9	6.9	6.9	93	5.8	3	5	45	0.00	1013.617	0	0.000	0
20080521 01:15	6.9	6.9	6.9	93	5.8	3	6	45	0.20	1013.583	0	0.000	0
20080521 01:20	6.9	6.9	6.9	93	5.8	2	5	45	0.20	1013.549	0	0.000	0
20080521 01:25	6.9	6.9	6.9	93	5.8	2	5	45	0.00	1013.549	0	0.000	0
20080521 01:30	6.9	6.9	6.9	93	5.8	2	5	45	0.00	1013.481	0	0.000	0
20080521 01:35	6.9	6.9	6.9	93	5.8	3	6	45	0.20	1013.515	0	0.000	0
20080521 01:40	6.9	6.9	6.9	93	5.8	3	6	45	0.00	1013.447	0	0.000	0
20080521 01:45	6.9	6.9	6.9	93	5.8	2	5	45	0.00	1013.346	0	0.000	0
20080521 01:50	6.9	6.9	6.9	93	5.8	3	5	45	0.00	1013.346	0	0.000	0
20080521 01:55	6.9	6.9	6.9	93	5.8	3	5	45	0.00	1013.210	0	0.000	0
20080521 02:00	6.9	6.9	6.9	93	5.9	3	5	45	0.00	1013.177	0	0.000	0
20080521 02:05	6.9	6.9	6.9	93	5.9	3	5	45	0.00	1013.143	0	0.000	0
20080521 02:10	6.9	6.9	6.9	93	5.9	3	6	45	0.00	1013.109	0	0.000	0
20080521 02:15	6.9	6.9	6.9	93	5.9	3	8	45	0.00	1013.143	0	0.000	0
20080521 02:20	6.9	6.9	6.9	93	5.8	3	6	45	0.00	1013.244	0	0.000	0
20080521 02:25	6.8	6.8	6.8	93	5.8	5	8	45	0.00	1013.210	0	0.000	0
20080521 02:30	6.8	6.8	6.8	93	5.8	3	5	45	0.00	1013.210	0	0.000	0
20080521 02:35	6.8	6.8	6.8	93	5.8	3	6	45	0.00	1013.177	0	0.000	0
20080521 02:40	6.8	6.8	6.8	93	5.8	5	6	45	0.00	1013.177	0	0.000	0
20080521 02:45	6.8	6.8	6.8	93	5.8	3	5	45	0.00	1013.109	0	0.000	0
20080521 02:50	6.8	6.8	6.8	93	5.8	3	5	45	0.00	1013.075	0	0.000	0
20080521 02:55	6.8	6.8	6.8	93	5.8	3	5	45	0.20	1013.075	0	0.000	0
20080521 03:00	6.9	6.9	6.9	93	5.8	2	5	45	0.00	1013.007	0	0.000	0
20080521 03:05	6.8	6.8	6.8	93	5.8	5	6	45	0.00	1012.939	0	0.000	0
20080521 03:10	6.8	6.8	6.8	93	5.7	3	6	45	0.00	1012.973	0	0.000	0
20080521 03:15	6.8	6.8	6.8	93	5.7	5	6	45	0.00	1012.906	0	0.000	0
20080521 03:20	6.8	6.8	6.8	93	5.7	3	6	45	0.20	1012.906	0	0.000	0
20080521 03:25	6.8	6.8	6.8	93	5.8	2	5	45	0.00	1012.804	0	0.000	0
20080521 03:30	6.8	6.8	6.8	93	5.8	3	5	45	0.00	1012.872	0	0.000	0
20080521 03:35	6.8	6.8	6.8	93	5.7	3	6	45	0.00	1012.939	0	0.000	0
20080521 03:40	6.8	6.8	6.8	93	5.7	3	6	45	0.00	1012.804	0	0.000	0
20080521 03:45	6.8	6.8	6.8	93	5.7	3	6	45	0.00	1012.872	0	0.000	0
20080521 03:50	6.8	6.8	6.8	93	5.7	2	5	45	0.20	1012.804	0	0.000	0
20080521 03:55	6.8	6.8	6.8	93	5.7	3	5	45	0.00	1012.838	0	0.000	0
20080521 04:00	6.8	6.8	6.8	93	5.7	3	8	45	0.00	1012.838	0	0.000	0
20080521 04:05	6.8	6.8	6.8	93	5.7	2	6	22	0.00	1012.770	0	0.000	0
20080521 04:10	6.8	6.8	6.8	93	5.8	2	6	67	0.00	1012.736	0	0.000	0
20080521 04:15	6.8	6.8	6.8	93	5.8	3	5	67	0.20	1012.770	0	0.000	0
20080521 04:20	6.8	6.8	6.8	93	5.8	3	6	45	0.00	1012.804	0	0.000	0
20080521 04:25	6.8	6.8	6.8	93	5.8	2	6	22	0.00	1012.770	0	0.000	0
20080521 04:30	6.8	6.8	6.8	93	5.8	3	5	22	0.00	1012.770	0	0.000	0
20080521 04:35	6.9	6.9	6.9	93	5.8	2	3	22	0.00	1012.770	0	0.000	0
20080521 04:40	6.9	6.9	6.9	94	6.0	3	8	22	0.00	1012.736	0	0.000	0
20080521 04:45	6.9	6.9	6.9	93	5.8	3	6	22	0.00	1012.635	0	0.000	0
20080521 04:50	6.9	6.9	6.9	94	6.0	2	6	22	0.00	1012.669	0	0.000	0
20080521 04:55	6.9	6.9	6.9	94	6.0	2	5	22	0.00	1012.669	0	0.000	0
20080521 05:00	6.9	6.9	6.9	94	6.0	5	6	22	0.00	1012.669	0	0.000	0
20080521 05:05	6.9	6.9	6.9	94	6.0	3	6	45	0.00	1012.669	0	0.000	0
20080521 05:10	6.9	6.9	6.9	94	6.0	3	8	45	0.00	1012.702	0	0.000	0
20080521 05:15	6.9	6.9	6.9	94	6.0	5	8	22	0.00	1012.736	0	0.000	0
20080521 05:20	6.8	6.8	6.8	94	5.9	3	8	45	0.00	1012.702	0	0.000	0
20080521 05:25	6.8	6.8	6.8	94	5.9	3	6	22	0.00	1012.702	0	0.000	0
20080521 05:30	6.8	6.8	6.8	94	5.9	3	8	22	0.00	1012.770	0	0.000	0
20080521 05:35	6.8	6.8	6.8	94	5.9	5	8	45	0.00	1012.770	0	0.000	0
20080521 05:40	6.8	6.8	6.8	94	5.9	5	6	22	0.00	1012.770	0	0.000	0
20080521 05:45	6.8	6.8	6.8	94	5.9	5	6	22	0.00	1012.736	5	0.000	0
20080521 05:50	6.8	6.8	6.8	94	5.9	5	6	22	0.00	1012.838	7	0.000	0
20080521 05:55	6.8	6.8	6.8	94	5.9	3	5	22	0.00	1012.838	10	0.000	0
20080521 06:00	6.8	6.8	6.8	94	5.9	3	6	22	0.00	1012.872	12	0.000	0
20080521 06:05	6.8	6.8	6.8	94	5.9	5	6	45	0.20	1012.973	12	0.000	0
20080521 06:10	6.9	6.9	6.9	94	6.0	3	8	45	0.00	1013.007	14	0.000	0
20080521 06:15	6.9	6.9	6.9	94	6.0	3	8	45	0.00	1013.007	18	0.000	0
20080521 06:20	6.9	6.9	6.9	94	6.0	3	5	45	0.00	1013.007	20	0.000	0
20080521 06:25	6.9	6.9	6.9	94	6.0	3	6	22	0.00	1013.007	20	0.000	0
20080521 06:30	6.9	6.9	6.9	94	6.0	3	6	22	0.00	1012.973	17	0.000	0
20080521 06:35	7.0	7.0	7.0	94	6.1	3	6	22	0.00	1012.973	21	0.000	0
20080521 06:40	7.0	7.0	7.0	94	6.1	3	8	45	0.00	1013.075	20	0.000	0
20080521 06:45	6.9	6.9	6.9	94	6.0	3	8	45	0.00	1013.041	25	0.000	0
20080521 06:50	6.9	6.9	6.9	94	6.0	5	6	45	0.00	1013.109	27	0.000	0
20080521 06:55	6.9	6.9	6.9	94	6.0	5	8	45	0.00	1013.109	27	0.000	0
20080521 07:00	7.0	7.0	7.0	94	6.1	3	6	67	0.00	1013.075	37	0.000	0
20080521 07:05	7.1	7.1	7.1	93	6.0	5	8	45	0.00	1013.075	45	0.000	0
20080521 07:10	7.1	7.1	7.1	93	6.0	5	10	45	0.00	1013.075	52	0.000	0
20080521 07:15	7.1	7.1	7.1	93	6.0	5	8	45	0.00	1013.075	45	0.000	0
20080521 07:20	7.1	6.0	7.1	93	6.0	6	11	45	0.00	1013.041	46	0.000	0
20080521 07:25	7.1	7.1	7.1	93	6.1	5	8	45	0.00	1013.007	49	0.000	0
20080521 07:30	7.2	7.2	7.2	93	6.1	5	10	45	0.00	1013.041	45	0.000	0
20080521 07:35	7.2	6.1	7.2	93	6.1	6	10	45	0.20	1013.041	46	0.000	0
20080521 07:40	7.2	7.2	7.2	93	6.1	5	8	45	0.00	1013.109	50	0.000	0
20080521 07:45	7.2	7.2	7.2	93	6.2	5	10	67	0.00	1013.143	49	0.000	0
20080521 07:50	7.2	6.2	7.2	93	6.2	6	10	45	0.00	1013.109	48	0.000	0
20080521 07:55	7.3	7.3	7.3	93	6.2	5	8	45	0.00	1013.109	53	0.000	0
20080521 08:00	7.3	7.3	7.3	93	6.2	5	10	67	0.00	1013.075	44	0.020	0
20080521 08:05	7.3	6.2	7.3	92	6.1	6	10	45	0.00	1013.109	46	0.000	0
20080521 08:10	7.3	7.3	7.3	93	6.3	5	8	45	0.00	1013.075	50	0.000	0
20080521 08:15	7.3	7.3	7.3	93	6.3	5	8	45	0.00	1013.109	52	0.000	0
20080521 08:20	7.3	7.3	7.3	93	6.3	5	8	45	0.00	1013.143	59	0.000	0
20080521 08:25	7.4	7.4	7.4	93	6.3	5	8	45	0.00	1013.210	58	0.000	0
20080521 08:30	7.4	7.4	7.4	93	6.4	5	6	45	0.00	1013.143	71	0.000	0
20080521 08:35	7.5	7.5	7.5	93	6.4	5	8	45	0.00	1013.210	77	0.000	0
20080521 08:40	7.6	7.6	7.6	93	6.5	5	8	67	0.00	1013.278	62	0.000	0
20080521 08:45	7.6	7.6	7.6	93	6.5	5	8	45	0.00	1013.312	64	0.000	0
20080521 08:50	7.6	7.6	7.6	93	6.5	3	6	90	0.00	1013.244	59	0.000	0
20080521 08:55	7.6	7.6	7.6	93	6.6	5	10	67	0.00	1013.312	74	0.000	0
20080521 09:00	7.6	7.6	7.6	93	6.6	5	8	45	0.00	1013.312	73	0.020	0
20080521 09:05	7.6	7.6	7.6	92	6.4	5	10	67	0.00	1013.312	75	0.000	0
20080521 09:10	7.6	7.6	7.6	92	6.4	3	8	67	0.00	1013.312	84	0.000	0
20080521 09:15	7.7	7.7	7.7	92	6.4	5	8	45	0.00	1013.312	105	0.000	1
20080521 09:20	7.7	7.7	7.7	92	6.5	5	8	45	0.00	1013.346	74	0.000	0
20080521 09:25	7.8	7.8	7.8	92	6.6	5	8	22	0.00	1013.346	72	0.000	0
20080521 09:30	7.8	7.8	7.8	92	6.6	3	10	45	0.00	1013.380	104	0.000	1
20080521 09:35	7.9	7.9	7.9	92	6.7	3	8	22	0.00	1013.380	119	0.000	1
20080521 09:40	8.0	8.0	8.0	92	6.8	3	6	45	0.00	1013.414	127	0.000	1
20080521 09:45	8.0	8.0	8.0	91	6.6	5	8	45	0.00	1013.481	120	0.000	1
20080521 09:50	8.1	8.1	8.1	91	6.7	3	6	67	0.00	1013.346	129	0.000	1
20080521 09:55	8.2	8.2	8.2	91	6.8	3	6	45	0.00	1013.346	124	0.000	1
20080521 10:00	8.2	8.2	8.2	90	6.7	5	8	67	0.00	1013.414	105	0.040	1
20080521 10:05	8.2	8.2	8.2	90	6.7	3	8	67	0.00	1013.414	116	0.000	1
20080521 10:10	8.3	8.3	8.3	90	6.7	3	8	45	0.00	1013.414	143	0.000	1
20080521 10:15	8.3	8.3	8.3	89	6.6	3	8	67	0.00	1013.414	168	0.000	1
20080521 10:20	8.5	8.5	8.5	89	6.8	3	6	67	0.00	1013.447	178	0.000	2
20080521 10:25	8.6	8.6	8.6	89	6.8	2	6	67	0.00	1013.481	132	0.000	1
20080521 10:30	8.6	8.6	8.6	89	6.8	3	6	45	0.00	1013.447	86	0.000	1
20080521 10:35	8.6	8.6	8.6	90	7.1	3	5	45	0.00	1013.481	82	0.000	1
20080521 10:40	8.6	8.6	8.6	89	6.8	3	6	45	0.00	1013.515	109	0.000	1
20080521 10:45	8.6	8.6	8.6	88	6.7	2	5	45	0.00	1013.583	109	0.000	1
20080521 10:50	8.5	8.5	8.5	88	6.6	3	5	45	0.00	1013.617	67	0.000	0
20080521 10:55	8.6	8.6	8.6	89	6.8	3	6	67	0.00	1013.651	47	0.000	0
20080521 11:00	8.5	8.5	8.5	89	6.8	2	5	45	0.00	1013.617	43	0.040	0
20080521 11:05	8.5	8.5	8.5	89	6.8	3	5	90	0.00	1013.617	45	0.000	0
20080521 11:10	8.4	8.4	8.4	89	6.7	2	5	90	0.00	1013.583	67	0.000	0
20080521 11:15	8.5	8.5	8.5	89	6.8	2	6	90	0.00	1013.617	79	0.000	1
20080521 11:20	8.6	8.6	8.6	89	6.8	3	5	45	0.00	1013.617	70	0.000	1
20080521 11:25	8.6	8.6	8.6	89	6.8	2	5	45	0.00	1013.617	57	0.000	0
20080521 11:30	8.6	8.6	8.6	90	7.1	3	6	45	0.00	1013.651	59	0.000	1
20080521 11:35	8.6	8.6	8.6	89	6.9	2	5	135	0.00	1013.651	63	0.000	1
20080521 11:40	8.6	8.6	8.6	89	6.9	2	6	135	0.00	1013.651	71	0.000	1
20080521 11:45	8.7	8.7	8.7	88	6.8	0	3	135	0.00	1013.684	107	0.000	1
20080521 11:50	8.7	8.7	8.7	88	6.8	2	3	135	0.00	1013.684	162	0.000	2
20080521 11:55	8.8	8.8	8.8	89	7.1	0	5	135	0.00	1013.684	168	0.000	2
20080521 12:00	8.9	8.9	8.9	87	6.8	5	6	67	0.00	1013.752	108	0.040	1
20080521 12:05	8.8	8.8	8.8	88	7.0	3	6	67	0.00	1013.752	93	0.000	1
20080521 12:10	8.8	8.8	8.8	89	7.1	0	3	112	0.00	1013.718	94	0.000	1
20080521 12:15	8.8	8.8	8.8	90	7.2	3	6	67	0.00	1013.718	97	0.000	1
20080521 12:20	8.8	8.8	8.8	91	7.4	3	6	22	0.00	1013.752	91	0.000	1
20080521 12:25	8.7	8.7	8.7	90	7.1	3	6	22	0.20	1013.752	92	0.000	1
20080521 12:30	8.6	8.6	8.6	91	7.2	3	5	22	0.00	1013.888	102	0.000	1
20080521 12:35	8.6	8.6	8.6	91	7.2	3	5	45	0.00	1013.854	134	0.000	1
20080521 12:40	8.7	8.7	8.7	92	7.4	3	6	45	0.00	1013.786	118	0.000	1
20080521 12:45	8.7	8.7	8.7	92	7.4	3	5	45	0.00	1013.786	140	0.000	1
20080521 12:50	8.7	8.7	8.7	92	7.5	2	5	45	0.00	1013.820	198	0.000	2
20080521 12:55	8.9	8.9	8.9	92	7.7	2	3	45	0.00	1013.786	288	0.000	3
20080521 13:00	9.1	9.1	9.1	92	7.8	3	6	45	0.00	1013.684	337	0.060	4
20080521 13:05	9.2	9.2	9.2	91	7.8	3	5	45	0.00	1013.583	305	0.000	3
20080521 13:10	9.2	9.2	9.2	89	7.5	5	6	45	0.00	1013.583	198	0.000	2
20080521 13:15	9.2	9.2	9.2	90	7.6	3	6	45	0.00	1013.583	181	0.000	2
20080521 13:20	9.1	9.1	9.1	90	7.6	3	5	45	0.00	1013.684	168	0.000	2
20080521 13:25	9.1	9.1	9.1	90	7.5	5	6	45	0.00	1013.651	177	0.000	2
20080521 13:30	9.2	9.2	9.2	91	7.8	2	5	45	0.00	1013.651	222	0.000	2
20080521 13:35	9.2	9.2	9.2	90	7.7	2	6	22	0.00	1013.549	233	0.000	2
20080521 13:40	9.3	9.3	9.3	90	7.8	0	3	22	0.00	1013.549	252	0.000	2
20080521 13:45	9.5	9.5	9.5	90	7.9	2	5	22	0.00	1013.481	269	0.000	3
20080521 13:50	9.6	9.6	9.6	89	7.9	2	5	67	0.00	1013.481	282	0.000	3
20080521 13:55	9.8	9.8	9.8	88	7.9	2	5	67	0.00	1013.515	256	0.000	2
20080521 14:00	9.9	9.9	9.9	87	7.9	2	6	67	0.00	1013.481	216	0.080	2
20080521 14:05	10.0	10.0	10.0	86	7.8	5	11	67	0.00	1013.549	158	0.000	2
20080521 14:10	9.8	9.1	9.8	87	7.7	6	10	45	0.00	1013.549	150	0.000	1
20080521 14:15	9.7	9.7	9.7	87	7.6	5	6	45	0.00	1013.549	168	0.000	2
20080521 14:20	9.7	9.7	9.7	87	7.6	3	6	45	0.00	1013.651	185	0.000	2
20080521 14:25	9.8	9.8	9.8	87	7.8	5	6	45	0.00	1013.515	204	0.000	2
20080521 14:30	9.9	9.9	9.9	87	7.9	5	8	67	0.00	1013.549	213	0.000	2
20080521 14:35	10.0	10.0	10.0	86	7.8	3	6	22	0.00	1013.549	228	0.000	2
20080521 14:40	10.1	10.1	10.1	86	7.9	3	10	0	0.00	1013.583	246	0.000	2
20080521 14:45	10.2	10.2	10.2	84	7.6	3	6	45	0.00	1013.617	258	0.000	2
20080521 14:50	10.3	10.3	10.3	83	7.5	3	6	45	0.00	1013.583	216	0.000	2
20080521 14:55	10.3	10.3	10.3	83	7.5	5	6	45	0.00	1013.583	167	0.000	2
20080521 15:00	10.3	10.3	10.3	82	7.3	3	6	45	0.00	1013.549	141	0.080	1
20080521 15:05	10.3	10.3	10.3	83	7.6	3	6	45	0.00	1013.583	125	0.000	1
20080521 15:10	10.3	10.3	10.3	83	7.6	3	6	90	0.00	1013.583	101	0.000	1
20080521 15:15	10.3	10.3	10.3	85	7.9	3	10	90	0.00	1013.617	74	0.000	1
20080521 15:20	10.1	10.1	10.1	86	7.8	10	14	22	0.00	1013.617	40	0.000	0
20080521 15:25	9.8	9.2	9.8	87	7.8	6	11	22	0.00	1013.617	28	0.000	0
20080521 15:30	9.6	8.6	9.6	88	7.7	8	14	67	0.00	1013.786	34	0.000	0
20080521 15:35	9.4	8.4	9.4	89	7.7	8	16	45	0.00	1013.820	38	0.000	0
20080521 15:40	9.4	8.3	9.4	89	7.7	8	14	45	0.00	1013.820	46	0.000	0
20080521 15:45	9.3	8.2	9.3	90	7.7	8	14	45	0.00	1013.786	54	0.000	0
20080521 15:50	9.2	8.1	9.2	90	7.7	8	11	67	0.00	1013.718	60	0.000	0
20080521 15:55	9.2	8.4	9.2	91	7.8	6	10	45	0.00	1013.684	65	0.000	0
20080521 16:00	9.2	8.4	9.2	91	7.8	6	11	67	0.00	1013.786	80	0.020	1
20080521 16:05	9.2	8.4	9.2	90	7.6	6	11	67	0.00	1013.583	88	0.000	1
20080521 16:10	9.2	9.2	9.2	90	7.7	5	10	67	0.00	1013.684	91	0.000	1
20080521 16:15	9.3	8.5	9.3	90	7.7	6	8	45	0.00	1013.684	89	0.000	1
20080521 16:20	9.2	8.5	9.2	90	7.7	6	10	45	0.00	1013.684	93	0.000	1
20080521 16:25	9.3	9.3	9.3	91	7.9	5	8	45	0.00	1013.718	91	0.000	1
20080521 16:30	9.3	9.3	9.3	90	7.7	5	8	45	0.00	1013.752	99	0.000	1
20080521 16:35	9.3	9.3	9.3	90	7.7	5	8	45	0.00	1013.752	101	0.000	1
20080521 16:40	9.3	9.3	9.3	90	7.7	5	8	45	0.00	1013.752	107	0.000	1
20080521 16:45	9.3	9.3	9.3	89	7.6	3	6	67	0.00	1013.718	117	0.000	1
20080521 16:50	9.4	9.4	9.4	90	7.9	5	8	67	0.00	1013.684	131	0.000	1
20080521 16:55	9.5	9.5	9.5	89	7.8	5	8	90	0.00	1013.651	137	0.000	1
20080521 17:00	9.6	9.6	9.6	89	7.8	5	6	45	0.00	1013.718	132	0.040	1
20080521 17:05	9.7	9.7	9.7	89	7.9	3	6	45	0.00	1013.854	118	0.000	1
20080521 17:10	9.8	9.8	9.8	88	7.9	3	6	67	0.00	1013.786	102	0.000	1
20080521 17:15	9.8	9.8	9.8	88	7.9	3	6	90	0.00	1013.786	101	0.000	1
20080521 17:20	9.8	9.8	9.8	88	7.9	2	6	112	0.00	1013.752	98	0.000	1
20080521 17:25	9.8	9.8	9.8	88	7.9	3	6	135	0.00	1013.752	89	0.000	0
20080521 17:30	9.9	9.9	9.9	87	7.8	2	5	135	0.00	1013.752	83	0.000	0
20080521 17:35	9.9	9.9	9.9	87	7.8	2	5	135	0.00	1013.786	76	0.000	0
20080521 17:40	9.9	9.9	9.9	86	7.7	2	5	135	0.00	1013.752	79	0.000	0
20080521 17:45	9.9	9.9	9.9	87	7.8	2	5	135	0.00	1013.718	83	0.000	0
20080521 17:50	9.9	9.9	9.9	86	7.7	0	5	135	0.00	1013.684	78	0.000	0
20080521 17:55	10.0	10.0	10.0	87	7.9	0	3	135	0.00	1013.718	73	0.000	0
20080521 18:00	10.0	10.0	10.0	86	7.8	3	6	135	0.00	1013.718	70	0.040	0
20080521 18:05	10.0	10.0	10.0	86	7.8	3	6	135	0.00	1013.684	70	0.000	0
20080521 18:10	10.0	10.0	10.0	86	7.8	3	5	67	0.00	1013.786	70	0.000	0
20080521 18:15	10.0	10.0	10.0	87	7.9	2	5	67	0.00	1013.786	75	0.000	0
20080521 18:20	10.1	10.1	10.1	86	7.8	2	5	22	0.00	1013.854	74	0.000	0
20080521 18:25	10.1	10.1	10.1	86	7.8	2	5	22	0.00	1013.854	57	0.000	0
20080521 18:30	10.1	10.1	10.1	87	8.0	2	5	90	0.00	1013.820	46	0.000	0
20080521 18:35	10.1	10.1	10.1	87	8.0	2	5	90	0.00	1013.854	41	0.000	0
20080521 18:40	10.1	10.1	10.1	86	7.9	0	2	90	0.00	1013.888	40	0.000	0
20080521 18:45	10.1	10.1	10.1	86	7.9	2	5	90	0.00	1013.888	40	0.000	0
20080521 18:50	10.1	10.1	10.1	87	8.0	2	5	90	0.00	1013.922	35	0.000	0
20080521 18:55	10.1	10.1	10.1	87	8.0	0	5	90	0.00	1013.955	29	0.000	0
20080521 19:00	10.1	10.1	10.1	87	8.0	2	3	90	0.00	1014.057	20	0.020	0
20080521 19:05	10.1	10.1	10.1	86	7.9	2	5	90	0.00	1014.023	15	0.000	0
20080521 19:10	10.1	10.1	10.1	87	8.0	2	5	90	0.00	1014.057	12	0.000	0
20080521 19:15	10.1	10.1	10.1	87	8.0	2	5	90	0.00	1014.023	12	0.000	0
20080521 19:20	10.1	10.1	10.1	87	8.0	2	5	67	0.00	1014.057	12	0.000	0
20080521 19:25	10.0	10.0	10.0	87	7.9	3	5	67	0.00	1014.091	12	0.000	0
20080521 19:30	9.9	9.9	9.9	87	7.8	3	5	45	0.00	1014.091	11	0.000	0
20080521 19:35	9.8	9.8	9.8	88	7.9	0	3	45	0.00	1014.125	10	0.000	0
20080521 19:40	9.8	9.8	9.8	88	7.9	0	2	45	0.00	1014.159	9	0.000	0
20080521 19:45	9.7	9.7	9.7	88	7.8	0	3	45	0.00	1014.192	9	0.000	0
20080521 19:50	9.7	9.7	9.7	88	7.8	0	3	45	0.00	1014.159	9	0.000	0
20080521 19:55	9.6	9.6	9.6	89	7.9	2	3	45	0.00	1014.125	9	0.000	0
20080521 20:00	9.6	9.6	9.6	89	7.9	2	5	45	0.00	1014.192	7	0.000	0
20080521 20:05	9.6	9.6	9.6	90	8.1	0	2	45	0.00	1014.159	5	0.000	0
20080521 20:10	9.6	9.6	9.6	90	8.0	2	3	45	0.00	1014.159	1	0.000	0
20080521 20:15	9.6	9.6	9.6	91	8.2	2	5	45	0.00	1014.192	0	0.000	0
20080521 20:20	9.6	9.6	9.6	91	8.2	0	3	45	0.00	1014.226	0	0.000	0
20080521 20:25	9.6	9.6	9.6	91	8.2	0	2	45	0.00	1014.294	0	0.000	0
20080521 20:30	9.6	9.6	9.6	91	8.2	2	6	45	0.00	1014.396	0	0.000	0
20080521 20:35	9.5	9.5	9.5	91	8.1	2	3	45	0.00	1014.429	0	0.000	0
20080521 20:40	9.5	9.5	9.5	91	8.1	2	3	45	0.00	1014.396	0	0.000	0
20080521 20:45	9.4	9.4	9.4	91	8.0	2	5	45	0.00	1014.429	0	0.000	0
20080521 20:50	9.4	9.4	9.4	92	8.2	3	10	45	0.00	1014.463	0	0.000	0
20080521 20:55	9.4	9.4	9.4	92	8.2	5	8	45	0.00	1014.531	0	0.000	0
20080521 21:00	9.3	9.3	9.3	92	8.1	3	5	45	0.00	1014.531	0	0.000	0
20080521 21:05	9.3	9.3	9.3	92	8.0	3	5	45	0.00	1014.463	0	0.000	0
20080521 21:10	9.3	9.3	9.3	92	8.0	2	5	45	0.00	1014.463	0	0.000	0
20080521 21:15	9.2	9.2	9.2	92	8.0	2	5	45	0.00	1014.531	0	0.000	0
20080521 21:20	9.2	9.2	9.2	92	8.0	2	5	45	0.20	1014.497	0	0.000	0
20080521 21:25	9.2	9.2	9.2	93	8.1	2	5	45	0.00	1014.599	0	0.000	0
20080521 21:30	9.2	9.2	9.2	93	8.1	3	6	45	0.00	1014.599	0	0.000	0
20080521 21:35	9.2	9.2	9.2	93	8.1	2	3	45	0.00	1014.633	0	0.000	0
20080521 21:40	9.2	9.2	9.2	93	8.1	2	3	45	0.00	1014.633	0	0.000	0
20080521 21:45	9.2	9.2	9.2	93	8.1	0	3	45	0.00	1014.666	0	0.000	0
20080521 21:50	9.2	9.2	9.2	93	8.1	0	3	45	0.00	1014.633	0	0.000	0
20080521 21:55	9.2	9.2	9.2	93	8.1	3	6	45	0.00	1014.666	0	0.000	0
20080521 22:00	9.1	9.1	9.1	93	8.0	3	6	45	0.00	1014.768	0	0.000	0
20080521 22:05	9.1	9.1	9.1	93	8.0	3	5	45	0.00	1014.734	0	0.000	0
20080521 22:10	9.1	9.1	9.1	93	8.0	2	5	45	0.00	1014.734	0	0.000	0
20080521 22:15	9.1	9.1	9.1	93	8.0	3	5	45	0.00	1014.734	0	0.000	0
20080521 22:20	9.1	9.1	9.1	93	8.0	2	6	45	0.00	1014.734	0	0.000	0
20080521 22:25	9.1	9.1	9.1	93	8.0	3	6	22	0.00	1014.633	0	0.000	0
20080521 22:30	9.1	9.1	9.1	93	8.0	2	5	22	0.00	1014.666	0	0.000	0
20080521 22:35	9.1	9.1	9.1	93	8.0	0	3	22	0.00	1014.700	0	0.000	0
20080521 22:40	9.1	9.1	9.1	93	8.0	0	3	22	0.00	1014.633	0	0.000	0
20080521 22:45	9.1	9.1	9.1	93	8.0	2	5	22	0.00	1014.599	0	0.000	0
20080521 22:50	9.1	9.1	9.1	93	8.0	2	5	22	0.00	1014.633	0	0.000	0
20080521 22:55	9.1	9.1	9.1	94	8.1	2	5	22	0.00	1014.599	0	0.000	0
20080521 23:00	9.1	9.1	9.1	94	8.1	0	3	22	0.00	1014.599	0	0.000	0
20080521 23:05	9.1	9.1	9.1	94	8.2	0	3	22	0.00	1014.497	0	0.000	0
20080521 23:10	9.1	9.1	9.1	94	8.2	0	2	22	0.00	1014.463	0	0.000	0
20080521 23:15	9.1	9.1	9.1	94	8.2	0	2	22	0.00	1014.463	0	0.000	0
20080521 23:20	9.1	9.1	9.1	94	8.2	2	5	22	0.00	1014.463	0	0.000	0
20080521 23:25	9.1	9.1	9.1	94	8.2	2	5	22	0.00	1014.463	0	0.000	0
20080521 23:30	9.1	9.1	9.1	94	8.2	2	5	22	0.00	1014.463	0	0.000	0
20080521 23:35	9.1	9.1	9.1	94	8.2	3	5	22	0.00	1014.429	0	0.000	0
20080521 23:40	9.1	9.1	9.1	94	8.1	3	5	22	0.00	1014.396	0	0.000	0
20080521 23:45	9.1	9.1	9.1	94	8.1	3	5	22	0.00	1014.396	0	0.000	0
20080521 23:50	9.0	9.0	9.0	94	8.1	3	6	22	0.00	1014.396	0	0.000	0
20080521 23:55	9.0	9.0	9.0	94	8.1	2	5	22	0.00	1014.396	0	0.000	0
20080521 24:00	9.0	9.0	9.0	94	8.1	2	5	45	0.00	1014.396	0	0.000	0



Please note the license to use and transfer of this data:
http://creativecommons.org/licenses/by-nc-sa/3.0/deed.en

Bitte beachten sie die Lizenz zur Verwertung und Weitergabe der Daten:
http://creativecommons.org/licenses/by-nc-sa/3.0/deed.de

zurück zur Übersicht der Archivdaten (Monats und Tagesdaten)

Cookies helfen bei der Bereitstellung von Inhalten. Durch die Nutzung dieser Seiten erklärst du dich damit einverstanden, dass Cookies auf deinem Rechner gespeichert werden. Weitere Information